KB6OQJ Weather Reports


Display with metric or nautical units.
time (UTC)temp
F
wind
direction
speed
MPH
gust
MPH
rain 1hr
in
rain 24hr
in
rain mn
in
humidity
%
barometer
mb
20260904093004 60 241 0.0 0.0 0.00 0.00 0.00 74 883.3
20260904092003 60 305 0.0 0.0 0.00 0.00 0.00 74 885.7
20260904091004 60 311 0.0 0.0 0.00 0.00 0.00 74 893.0
20260904090004 60 311 0.0 0.0 0.00 0.00 0.00 73 882.4
20260904085003 61 311 0.0 0.0 0.00 0.00 0.00 73 895.3
20260904084003 60 222 0.0 0.0 0.00 0.00 0.00 73 895.3
20260904082004 61 222 0.0 0.0 0.00 0.00 0.00 73 888.4
20260904080004 60 222 0.0 0.0 0.00 0.00 0.00 73 888.9
20260904074004 60 222 0.0 0.0 0.00 0.00 0.00 72 888.9
20260904073004 60 355 0.0 0.0 0.00 0.00 0.00 72 881.4
20260904072004 60 355 0.0 0.0 0.00 0.00 0.00 72 881.4
20260904070003 60 355 0.0 0.0 0.00 0.00 0.00 72 880.9
20260904065004 60 355 0.0 0.0 0.00 0.00 0.00 72 879.8
20260904064004 60 355 0.0 0.0 0.00 0.00 0.00 72 875.6
20260904063004 60 355 0.0 0.0 0.00 0.00 0.00 72 875.6
20260904062004 60 355 0.0 0.0 0.00 0.00 0.00 72 875.6
20260904061003 60 13 0.0 0.0 0.00 0.00 0.00 73 875.6
20260904060004 60 13 0.0 0.0 0.00 0.00 0.00 74 875.6
20260904055004 60 13 0.0 0.0 0.00 0.00 0.00 75 859.7
20260904053004 61 13 0.0 0.0 0.00 0.00 0.00 76 840.4
20260904052003 61 13 0.0 0.0 0.00 0.00 0.00 77 840.4
20260904051003 61 281 0.0 0.0 0.00 0.00 0.00 77 840.4
20260904050004 62 281 0.0 0.0 0.00 0.00 0.00 77 853.3
20260904045003 62 281 0.0 0.0 0.00 0.00 0.00 77 853.3
20260904044004 62 281 0.0 0.0 0.00 0.00 0.00 77 853.3
20260904043004 63 284 0.0 0.0 0.00 0.00 0.00 77 853.3
20260904042004 63 284 0.0 0.0 0.00 0.00 0.00 77 853.3
20260904041004 63 273 0.0 0.0 0.00 0.00 0.00 77 853.3
20260904035004 64 275 0.0 7.0 0.00 0.00 0.00 76 848.2
20260904034004 65 275 0.0 7.0 0.00 0.00 0.00 76 856.7
20260904032004 65 283 1.0 5.0 0.00 0.00 0.00 74 858.0
20260904031003 66 284 1.0 9.0 0.00 0.00 0.00 73 850.5
20260904025004 67 281 0.0 10.0 0.00 0.00 0.00 70 850.5
20260904024004 67 301 0.0 9.0 0.00 0.00 0.00 69 839.6
20260904023004 68 297 1.0 10.0 0.00 0.00 0.00 68 839.6
20260904022004 69 271 1.0 10.0 0.00 0.00 0.00 67 852.2
20260904015004 71 303 1.0 12.0 0.00 0.00 0.00 64 851.4
20260904012004 73 286 5.0 12.0 0.00 0.00 0.00 61 851.4
20260904010003 74 300 3.0 13.0 0.00 0.00 0.00 60 858.4
20260904005004 74 298 6.0 16.0 0.00 0.00 0.00 59 846.4
20260904004004 75 282 7.0 15.0 0.00 0.00 0.00 58 898.6
20260904003004 76 283 3.0 15.0 0.00 0.00 0.00 57 898.6
20260904002003 77 302 7.0 15.0 0.00 0.00 0.00 55 898.6
20260904000004 79 290 6.0 16.0 0.00 0.00 0.00 52 898.6
20260903235004 80 288 1.0 16.0 0.00 0.00 0.00 52 898.6
20260903234004 81 287 9.0 16.0 0.00 0.00 0.00 50 844.9
20260903233004 81 298 5.0 13.0 0.00 0.00 0.00 50 844.9
20260903232004 81 269 7.0 14.0 0.00 0.00 0.00 50 844.9
20260903231004 82 290 2.0 15.0 0.00 0.00 0.00 50 844.9
20260903230004 82 281 3.0 17.0 0.00 0.00 0.00 50 844.9
20260903224004 82 280 7.0 15.0 0.00 0.00 0.00 49 844.9
20260903223003 82 295 7.0 14.0 0.00 0.00 0.00 49 844.9
20260903222003 82 301 7.0 18.0 0.00 0.00 0.00 49 844.9
20260903221003 82 275 5.0 15.0 0.00 0.00 0.00 50 844.9
20260903220004 82 283 2.0 15.0 0.00 0.00 0.00 50 844.9
20260903215003 82 285 2.0 13.0 0.00 0.00 0.00 50 844.9
20260903214004 82 279 6.0 16.0 0.00 0.00 0.00 50 844.9
20260903213003 82 298 7.0 16.0 0.00 0.00 0.00 49 844.9
20260903211004 82 288 6.0 15.0 0.00 0.00 0.00 49 844.9
20260903204004 81 313 1.0 13.0 0.00 0.00 0.00 50 844.9
20260903203004 81 304 5.0 10.0 0.00 0.00 0.00 49 844.9
20260903202003 81 288 6.0 12.0 0.00 0.00 0.00 50 844.9
20260903201004 80 295 4.0 12.0 0.00 0.00 0.00 49 844.9
20260903200004 81 281 6.0 12.0 0.00 0.00 0.00 49 844.9
20260903195004 80 275 1.0 7.0 0.00 0.00 0.00 49 844.9
20260903193003 78 269 0.0 0.0 0.00 0.00 0.00 53 844.9
20260903192004 77 331 0.0 0.0 0.00 0.00 0.00 54 844.9
20260903191004 76 55 0.0 0.0 0.00 0.00 0.00 56 844.9
20260903190004 77 313 0.0 0.0 0.00 0.00 0.00 55 844.9
20260903185003 76 197 0.0 0.0 0.00 0.00 0.00 57 844.9
20260903184004 75 229 0.0 0.0 0.00 0.00 0.00 61 844.9
20260903183004 74 63 0.0 0.0 0.00 0.00 0.00 62 844.9
20260903182003 73 34 0.0 0.0 0.00 0.00 0.00 64 844.9
20260903181004 71 33 0.0 0.0 0.00 0.00 0.00 65 844.9
20260903180004 71 51 0.0 0.0 0.00 0.00 0.00 67 844.9
20260903175004 70 27 0.0 0.0 0.00 0.00 0.00 69 844.9
20260903174003 69 40 0.0 0.0 0.00 0.00 0.00 70 844.9
20260903173004 68 130 0.0 0.0 0.00 0.00 0.00 73 844.9
20260903172004 67 126 0.0 0.0 0.00 0.00 0.00 75 844.9
20260903171003 66 58 0.0 0.0 0.00 0.00 0.00 76 844.9
20260903170004 64 142 0.0 0.0 0.00 0.00 0.00 77 844.9
20260903165004 63 123 0.0 0.0 0.00 0.00 0.00 76 844.9
20260903164004 61 113 0.0 0.0 0.00 0.00 0.00 75 844.9
20260903163004 61 88 0.0 0.0 0.00 0.00 0.00 74 844.9
20260903162004 60 167 0.0 0.0 0.00 0.00 0.00 71 844.9
20260903161003 59 219 0.0 0.0 0.00 0.00 0.00 70 844.9
20260903155004 58 256 0.0 0.0 0.00 0.00 0.00 67 844.9
20260903154004 58 264 0.0 0.0 0.00 0.00 0.00 66 844.9
20260903153003 58 272 0.0 0.0 0.00 0.00 0.00 66 844.9
20260903152003 58 274 0.0 0.0 0.00 0.00 0.00 66 844.9
20260903104005 58 338 0.0 0.0 0.00 0.00 0.00 75 822.0
20260903103004 58 338 0.0 0.0 0.00 0.00 0.00 75 822.0
20260903101003 59 338 0.0 0.0 0.00 0.00 0.00 74 822.0
20260903100004 59 338 0.0 0.0 0.00 0.00 0.00 75 822.0
20260903095004 59 338 0.0 0.0 0.00 0.00 0.00 74 822.0
20260903094004 60 338 0.0 0.0 0.00 0.00 0.00 74 822.0